QPF
0.03 0.02 0.02 0.01 0.01 0.02 0.03 0.01 0.00 0.00 0.00 0.00 0.00 0.00 0.00 0.00 0.00 0.00 0.00 0.00 0.00 0.00
0.00 0.00 0.00 0.00 0.01 0.03 0.03 0.01 0.00 0.00 0.00 0.00 0.00 0.00 0.00 0.00 0.00 0.00 0.00 0.00 0.00 0.00
0.00 0.01 0.01 0.02 0.04 0.05 0.03 0.01 0.00 0.00 0.00 0.00 0.00 0.00 0.00 0.00 0.00 0.00 0.00 0.00 0.00 0.00
0.02 0.03 0.03 0.05 0.07 0.06 0.03 0.01 0.01 0.00 0.00 0.00 0.00 0.00 0.00 0.00 0.00 0.00 0.00 0.00 0.00 0.00
0.06 0.06 0.04 0.04 0.05 0.05 0.03 0.02 0.01 0.00 0.00 0.00 0.00 0.00 0.00 0.00 0.00 0.00 0.00 0.00 0.00 0.00
0.03 0.02 0.04 0.05 0.04 0.03 0.02 0.01 0.00 0.00 0.00 0.00 0.00 0.00 0.00 0.00 0.00 0.00 0.00 0.00 0.00 0.00
0.01 0.02 0.02 0.03 0.02 0.02 0.01 0.00 0.00 0.00 0.00 0.00 0.00 0.00 0.00 0.00 0.00 0.00 0.00 0.00 0.00 0.00
0.04 0.02 0.01 0.01 0.00 0.00 0.00 0.00 0.00 0.00 0.00 0.00 0.00 0.00 0.00 0.00 0.00 0.00 0.00 0.00 0.00 0.00
0.00 0.00 0.00 0.00 0.00 0.00 0.00 0.00 0.00 0.00 0.00 0.00 0.00 0.00 0.00 0.00 0.00 0.00 0.00 0.00 0.00 0.00
0.00 0.00 0.00 0.00 0.00 0.00 0.00 0.00 0.00 0.00 0.00 0.00 0.00 0.00 0.00 0.00 0.00 0.00 0.00 0.00 0.00 0.00
0.00 0.00 0.00 0.00 0.00 0.00 0.00 0.00 0.00 0.00 0.00 0.00 0.00 0.00 0.00 0.00 0.00 0.00 0.00 0.00 0.00 0.00
0.00 0.00 0.00 0.00 0.00 0.00 0.00 0.00 0.00 0.00 0.00 0.00 0.00 0.00 0.00 0.00 0.00 0.00 0.00 0.00 0.00 0.00
0.00 0.00 0.00 0.00 0.00 0.00 0.00 0.00 0.00 0.00 0.00 0.00 0.00 0.00 0.00 0.00 0.00 0.00 0.00 0.00 0.00 0.00
0.00 0.00 0.00 0.00 0.00 0.00 0.00 0.00 0.00 0.00 0.00 0.00 0.00 0.00 0.00 0.00 0.00 0.00 0.00 0.00 0.00 0.00
MSLP
1017.49 1017.93 1018.72 1019.09 1020.01 1020.66 1020.92 1021.44 1021.80 1022.21 1022.54 1023.02 1024.03 1024.21 1024.75 1024.80 1025.03 1024.56 1024.50 1024.60 1024.63 1024.39
1016.99 1017.42 1017.63 1018.20 1019.58 1020.01 1020.54 1021.06 1021.42 1021.83 1022.36 1023.20 1023.58 1024.18 1024.09 1024.36 1024.46 1024.37 1024.58 1024.51 1024.63 1024.69
1016.35 1016.75 1017.08 1017.67 1018.52 1019.09 1019.93 1020.31 1020.90 1021.54 1022.13 1022.66 1023.17 1023.39 1024.23 1024.36 1024.00 1024.33 1024.53 1024.50 1024.37 1024.54
1015.75 1016.08 1016.67 1017.26 1018.14 1018.61 1019.11 1019.70 1020.50 1020.88 1021.65 1022.20 1022.59 1023.31 1024.06 1024.08 1024.12 1024.42 1024.29 1024.32 1024.30 1024.33
1014.96 1015.60 1016.19 1017.15 1017.77 1018.40 1018.98 1019.58 1019.86 1020.40 1021.34 1021.97 1022.57 1023.09 1023.86 1023.92 1024.23 1024.68 1024.46 1024.04 1023.92 1023.99
1015.18 1015.76 1016.46 1017.16 1017.75 1018.36 1018.87 1019.35 1019.69 1020.37 1021.35 1021.67 1022.22 1022.84 1023.57 1024.21 1024.81 1024.77 1024.30 1023.70 1023.56 1023.46
1014.92 1015.78 1016.60 1017.18 1017.58 1018.19 1018.77 1019.11 1019.76 1020.71 1021.64 1022.57 1022.84 1023.42 1024.08 1024.39 1024.61 1024.51 1023.90 1023.64 1023.35 1023.17
1015.01 1015.60 1016.23 1016.78 1017.37 1018.01 1018.74 1019.36 1020.39 1021.11 1021.36 1021.83 1022.56 1023.70 1023.96 1024.16 1024.51 1024.36 1023.74 1023.12 1022.71 1022.37
1015.43 1015.89 1016.47 1017.23 1018.02 1018.81 1019.38 1019.89 1020.28 1021.00 1021.14 1022.47 1023.50 1023.73 1023.81 1024.20 1024.27 1023.88 1022.87 1022.21 1021.84 1021.51
1015.82 1016.40 1017.20 1018.06 1018.76 1019.35 1019.91 1020.34 1020.87 1021.45 1021.82 1022.59 1022.92 1022.95 1023.51 1023.81 1023.87 1023.28 1022.34 1021.69 1021.21 1020.81
1016.53 1017.12 1017.82 1018.52 1019.22 1019.92 1020.39 1020.76 1021.11 1021.62 1021.85 1022.04 1022.48 1022.87 1023.23 1023.39 1023.20 1022.36 1021.54 1021.02 1020.61 1020.23
1017.30 1017.79 1018.50 1019.17 1019.82 1020.27 1020.39 1020.72 1021.04 1021.54 1021.69 1022.03 1022.34 1022.59 1022.66 1022.93 1022.35 1021.50 1020.82 1020.39 1019.99 1019.59
1018.05 1018.37 1018.88 1019.46 1019.87 1020.28 1020.52 1020.97 1021.42 1021.68 1021.80 1021.86 1021.77 1021.68 1021.94 1022.31 1021.81 1020.98 1020.35 1019.88 1019.32 1019.06
1018.83 1019.32 1019.73 1020.18 1020.51 1020.71 1020.76 1020.83 1020.85 1021.12 1021.14 1021.14 1021.22 1021.37 1021.69 1021.88 1021.75 1020.91 1019.99 1019.39 1018.74 1018.37
Thickness
5606 5605 5598 5594 5583 5576 5571 5564 5557 5550 5543 5535 5525 5517 5507 5501 5494 5491 5484 5476 5469 5465
5606 5604 5601 5595 5581 5575 5567 5558 5551 5545 5536 5525 5517 5507 5500 5493 5486 5481 5471 5463 5456 5448
5606 5603 5599 5593 5583 5574 5562 5555 5547 5539 5529 5521 5511 5502 5489 5481 5478 5467 5457 5449 5444 5436
5604 5600 5593 5586 5575 5568 5561 5552 5542 5535 5523 5513 5504 5491 5481 5473 5465 5455 5447 5437 5430 5422
5603 5595 5587 5577 5569 5561 5553 5543 5537 5528 5515 5505 5492 5480 5469 5463 5452 5439 5431 5426 5420 5411
5592 5585 5577 5568 5561 5552 5543 5534 5526 5516 5504 5494 5483 5472 5460 5448 5433 5425 5422 5418 5411 5403
5586 5577 5567 5560 5553 5544 5534 5526 5516 5501 5487 5474 5466 5454 5443 5434 5423 5416 5413 5406 5398 5389
5578 5571 5563 5555 5546 5536 5524 5513 5498 5485 5479 5468 5455 5439 5431 5422 5411 5403 5400 5395 5387 5378
5566 5559 5550 5540 5528 5516 5507 5497 5488 5476 5468 5452 5436 5429 5421 5408 5400 5394 5392 5387 5378 5371
5554 5545 5534 5522 5512 5501 5491 5481 5471 5459 5449 5436 5426 5418 5407 5397 5389 5384 5381 5375 5368 5361
5537 5528 5518 5507 5496 5484 5474 5464 5454 5443 5434 5425 5414 5404 5394 5386 5379 5376 5371 5364 5357 5350
5520 5511 5500 5489 5478 5469 5461 5451 5441 5429 5420 5410 5401 5391 5383 5374 5370 5367 5361 5353 5346 5338
5502 5494 5485 5475 5464 5454 5445 5434 5422 5412 5404 5397 5392 5385 5373 5361 5356 5354 5348 5342 5334 5324
5483 5473 5464 5453 5444 5435 5428 5421 5414 5405 5398 5390 5381 5371 5357 5343 5335 5332 5333 5326 5321 5311